Hutchinson, KS

12:52 AM CDT on March 30, 2017 (GMT -0500)
Hutchinson Municipal

Weather History for KHUT - January, 2014

Change the Weather History Date:

Wednesday, January 8, 2014

  Actual Average Record
Temperature  
Mean Temperature 34 °F -  
Max Temperature 39 °F 40 °F 77 °F (2002)
Min Temperature 25 °F 17 °F 6 °F (2015)
Degree Days  
Heating Degree Days 32    
Moisture  
Dew Point 20 °F    
Average Humidity 62    
Maximum Humidity 75    
Minimum Humidity 49    
Precipitation  
Precipitation 0.00 in - - ()
Sea Level Pressure  
Sea Level Pressure 30.19 in    
Wind  
Wind Speed 9 mph (East)    
Max Wind Speed 14 mph    
Max Gust Speed 18 mph    
Visibility 10 miles    
Events      
Averages and records for this station are not official NWS values.
T = Trace of Precipitation, MM = Missing Value Source: NWS Daily Summary

Daily Weather History Graph

Daily Weather History Graph

Search for Another Location

Airport or City:

Trip Planner

Search our weather history database for the weather conditions in past years. The results will help you decide how hot, cold, wet, or windy it might be!

Date:

Astronomy

Jan. 08, 2014 Rise Set
Actual Time 7:47 AM CST 5:28 PM CST
Civil Twilight 7:18 AM CST 5:57 PM CST
Nautical Twilight 6:46 AM CST 6:30 PM CST
Astronomical Twilight 6:14 AM CST 7:02 PM CST
Moon 12:19 PM CST (1/8) 12:58 AM CST (1/8)
Length of Visible Light 10h 39m
Length of Day
9h 40m
First Quarter, 56% of the Moon is Illuminated
Jan 8
First Quarter
Jan 15
Full
Jan 23
Last Quarter
Jan 30
New
Feb 6
First Quarter

Hourly Weather History & Observations

Time (CST) Temp. Windchill Dew Point Humidity Pressure Visibility Wind Dir Wind Speed Gust Speed Precip Events Conditions
12:52 AM 30.9 °F 22.8 °F 23.0 °F 72% 30.09 in 10.0 mi SSE 9.2 mph - N/A   Clear
1:52 AM 33.1 °F 25.5 °F 21.9 °F 64% 30.07 in 10.0 mi SSE 9.2 mph - N/A   Clear
2:52 AM 33.1 °F 23.9 °F 21.0 °F 61% 30.07 in 10.0 mi SSE 12.7 mph - N/A   Clear
3:52 AM 32.0 °F 23.6 °F 19.9 °F 61% 30.08 in 10.0 mi SE 10.4 mph - N/A   Mostly Cloudy
4:52 AM 32.0 °F 25.6 °F 19.9 °F 61% 30.09 in 10.0 mi SE 6.9 mph - N/A   Scattered Clouds
5:52 AM 32.0 °F 25.6 °F 19.0 °F 59% 30.11 in 10.0 mi ESE 6.9 mph - N/A   Clear
6:52 AM 30.9 °F 24.3 °F 19.0 °F 61% 30.12 in 10.0 mi East 6.9 mph - N/A   Partly Cloudy
7:52 AM 30.0 °F 23.2 °F 19.9 °F 66% 30.16 in 10.0 mi East 6.9 mph - N/A   Mostly Cloudy
8:52 AM 30.0 °F 21.7 °F 19.0 °F 64% 30.19 in 10.0 mi ENE 9.2 mph - N/A   Clear
9:52 AM 32.0 °F 24.8 °F 19.9 °F 61% 30.22 in 10.0 mi ENE 8.1 mph - N/A   Clear
10:52 AM 34.0 °F 27.2 °F 18.0 °F 52% 30.24 in 10.0 mi East 8.1 mph - N/A   Clear
11:52 AM 36.0 °F 29.0 °F 19.0 °F 50% 30.21 in 10.0 mi ENE 9.2 mph - N/A   Clear
12:52 PM 36.0 °F 28.5 °F 19.9 °F 52% 30.19 in 10.0 mi ENE 10.4 mph - N/A   Clear
1:52 PM 37.0 °F 28.9 °F 19.9 °F 50% 30.17 in 10.0 mi ENE 12.7 mph - N/A   Clear
2:52 PM 39.0 °F 32.3 °F 21.0 °F 49% 30.18 in 10.0 mi NE 10.4 mph - N/A   Clear
3:52 PM 36.0 °F 27.1 °F 23.0 °F 59% 30.20 in 10.0 mi ENE 13.8 mph - N/A   Clear
4:52 PM 33.1 °F 24.9 °F 21.9 °F 64% 30.22 in 10.0 mi NE 10.4 mph - N/A   Scattered Clouds
5:52 PM 30.9 °F 22.2 °F 21.0 °F 67% 30.23 in 10.0 mi NE 10.4 mph - N/A   Overcast
6:52 PM 32.0 °F 23.0 °F 21.0 °F 64% 30.25 in 10.0 mi ENE 11.5 mph 18.4 mph N/A   Overcast
7:52 PM 30.9 °F 21.7 °F 21.0 °F 67% 30.26 in 10.0 mi ENE 11.5 mph - N/A   Overcast
8:52 PM 30.0 °F 22.4 °F 21.9 °F 72% 30.29 in 10.0 mi ENE 8.1 mph - N/A   Overcast
9:52 PM 28.9 °F 22.8 °F 21.9 °F 75% 30.29 in 9.0 mi NNE 5.8 mph - N/A   Overcast
10:52 PM 28.0 °F 20.0 °F 19.9 °F 72% 30.29 in 9.0 mi NNE 8.1 mph - N/A   Overcast
11:52 PM 25.0 °F 16.3 °F 18.0 °F 75% 30.28 in 8.0 mi NNE 8.1 mph - N/A   Overcast